Eilat, Israel

7:00 PM IDT on April 24, 2017 (GMT +0300)
Eilat

Weather History for LLET - November, 2013

Change the Weather History Date:

Saturday, November 23, 2013

  Actual Average Record
Temperature  
Mean Temperature 68 °F -  
Max Temperature 82 °F 72 °F 91 °F (1999)
Min Temperature 55 °F 55 °F 53 °F (2006)
Cooling Degree Days 4    
Growing Degree Days 18 (Base 50)    
Moisture  
Dew Point 46 °F    
Average Humidity 39    
Maximum Humidity 63    
Minimum Humidity 11    
Precipitation  
Precipitation 0.00 in 0.01 in - ()
Sea Level Pressure  
Sea Level Pressure 29.97 in    
Wind  
Wind Speed 3 mph ()    
Max Wind Speed 13 mph    
Max Gust Speed -    
Visibility 12.0 miles    
Events      
Averages and records for this station are not official NWS values.
T = Trace of Precipitation, MM = Missing Value Source: Averaged Metar Reports

Daily Weather History Graph

Daily Weather History Graph

Search for Another Location

Airport or City:

Trip Planner

Search our weather history database for the weather conditions in past years. The results will help you decide how hot, cold, wet, or windy it might be!

Date:

Astronomy

Nov. 23, 2013 Rise Set
Actual Time 6:10 AM IST 4:42 PM IST
Civil Twilight 5:45 AM IST 5:07 PM IST
Nautical Twilight 5:16 AM IST 5:36 PM IST
Astronomical Twilight 4:47 AM IST 6:05 PM IST
Moon 9:42 PM IST (11/23) 10:23 AM IST (11/23)
Length of Visible Light 11h 22m
Length of Day
10h 31m
Waning Gibbous, 72% of the Moon is Illuminated
Nov 23
Waning Gibbous
Nov 25
Last Quarter
Dec 3
New
Dec 9
First Quarter
Dec 17
Full

Hourly Weather History & Observations

Time (IST) Temp. Dew Point Humidity Pressure Visibility Wind Dir Wind Speed Gust Speed Precip Events Conditions
2:00 AM 60 °F 44 °F 45% 29.94 in 12 mi NNE 1.2 mph - -  
6:40 AM 55.4 °F 42.8 °F 63% 29.98 in - Variable 2.3 mph - N/A   Clear
6:50 AM 55.4 °F 41.0 °F 58% 29.98 in - Variable 3.5 mph - N/A   Clear
7:50 AM 62.6 °F 44.6 °F 52% 30.01 in - Variable 2.3 mph - N/A   Clear
8:00 AM 67 °F 45 °F 34% 29.99 in - Calm Calm - -  
8:50 AM 69.8 °F 42.8 °F 38% 30.01 in - Variable 2.3 mph - N/A   Clear
9:50 AM 77.0 °F 51.8 °F 41% 30.01 in - Variable 3.5 mph - N/A   Clear
10:50 AM 78.8 °F 53.6 °F 42% 29.98 in - South 5.8 mph - N/A   Clear
11:50 AM 80.6 °F 46.4 °F 30% 29.95 in - SSW 8.1 mph - N/A   Clear
12:50 PM 80.6 °F 46.4 °F 30% 29.95 in - SW 9.2 mph - N/A   Clear
1:50 PM 80.6 °F 44.6 °F 28% 29.92 in - SW 11.5 mph - N/A   Clear
2:00 PM 82 °F 37 °F 11% 29.91 in - SW 6.9 mph - -  
2:50 PM 80.6 °F 41.0 °F 24% 29.92 in - SW 12.7 mph - N/A   Clear
3:50 PM 80.6 °F 42.8 °F 26% 29.92 in - SW 9.2 mph - N/A   Clear
4:50 PM 78.8 °F 48.2 °F 34% 29.95 in - SSW 4.6 mph - N/A   Clear
5:50 PM 77.0 °F 48.2 °F 36% 29.98 in - Variable 2.3 mph - N/A   Clear
6:50 PM 73.4 °F 48.2 °F 41% 29.98 in - Variable 2.3 mph - N/A   Clear
7:50 PM 73.4 °F 48.2 °F 41% 29.98 in - Variable 1.2 mph - N/A   Clear
8:00 PM 73 °F 47 °F 28% 29.97 in 12 mi North 2.3 mph - -  
8:50 PM 71.6 °F 50.0 °F 46% 29.98 in - Variable 3.5 mph - N/A   Clear
9:50 PM 68.0 °F 50.0 °F 52% 29.98 in - Variable 1.2 mph - N/A   Clear
10:50 PM 68.0 °F 48.2 °F 49% 29.98 in - Variable 3.5 mph - N/A   Clear